Simultaneous Nadir Overpasses (SNOs) Predictions

Prediction of SNOs between METOP-A and TERRA Satellite Orbit:

Table of predicted SNOs for the next 14.0 days since TLE Epoch: 9/8/2017
Index Date (METOP-A) Time (METOP-A) Lat,Lon (METOP-A) SZA (METOP-A ) Date (TERRA) Time (TERRA) Lat,Lon (TERRA) SZA (TERRA ) Distance(km) Time Diff (sec)
1 09/09/2017 09:02:57 -81.35, -87.79 100.88 09/09/2017 09:03:23 -81.35, -87.70 100.86 1.44 26
2 09/09/2017 09:53:36 81.36, 80.16 79.21 09/09/2017 09:52:49 81.36, 80.05 79.18 1.97 47
3 09/12/2017 04:37:17 -81.35, -21.39 99.79 09/12/2017 04:37:38 -81.35, -21.29 99.77 1.82 21
4 09/12/2017 05:27:56 81.36, 146.55 80.30 09/12/2017 05:27:04 81.36, 146.44 80.26 1.88 52
5 09/15/2017 00:11:37 -81.35, 44.97 98.70 09/15/2017 00:11:53 -81.35, 45.05 98.69 1.37 16
6 09/15/2017 01:02:16 81.36,-147.09 81.39 09/15/2017 01:01:19 81.35,-147.25 81.34 2.89 57
7 09/17/2017 19:45:55 -81.36, 111.71 97.55 09/17/2017 19:46:06 -81.36, 111.67 97.55 0.54 11
8 09/17/2017 20:36:35 81.36, -80.75 82.49 09/17/2017 20:35:32 81.36, -80.64 82.47 1.83 63
9 09/20/2017 15:20:14 -81.36, 178.41 96.41 09/20/2017 15:20:20 -81.36, 178.22 96.42 3.28 6




NCC Satellite Simultaneous Nadir Overpasses (SNOs) Prediction Service
